Simultaneous Nadir Overpasses (SNOs) Predictions

Prediction of SNOs between NOAA-19 and NPP Satellite Orbit:

Table of predicted SNOs for the next 14.0 days since TLE Epoch: 5/1/2021
Index Date (NOAA-19) Time (NOAA-19) Lat,Lon (NOAA-19) SZA (NOAA-19 ) Date (NPP) Time (NPP) Lat,Lon (NPP) SZA (NPP ) Distance(km) Time Diff (sec)
1 05/09/2021 06:08:02 78.08, 59.37 62.08 05/09/2021 06:09:09 78.12, 62.31 61.79 67.54 67
2 05/09/2021 06:58:51 -78.37,-131.61 117.86 05/09/2021 06:59:59 -78.37,-131.76 117.88 3.54 68
3 05/09/2021 07:49:54 78.36, 35.55 62.13 05/09/2021 07:50:44 78.36, 35.62 62.10 1.58 50
4 05/09/2021 08:40:51 -78.38,-157.02 117.88 05/09/2021 08:41:29 -78.37,-157.15 117.89 3.24 38
5 05/09/2021 09:31:54 78.37, 10.13 62.11 05/09/2021 09:32:14 78.36, 10.23 62.09 2.53 20
6 05/09/2021 10:22:52 -78.36, 177.33 117.90 05/09/2021 10:22:59 -78.37, 177.47 117.91 3.26 7
7 05/09/2021 11:13:54 78.38, -15.28 62.10 05/09/2021 11:13:45 78.40, -15.38 62.13 2.82 9
8 05/09/2021 12:04:52 -78.37, 151.92 117.92 05/09/2021 12:04:29 -78.37, 152.09 117.93 3.70 23
9 05/09/2021 12:55:54 78.40, -40.69 62.08 05/09/2021 12:55:15 78.40, -40.76 62.11 1.71 39
10 05/09/2021 13:46:52 -78.39, 126.51 117.93 05/09/2021 13:46:00 -78.41, 126.48 117.89 2.99 52
11 05/09/2021 14:37:54 78.41, -66.10 62.07 05/09/2021 14:36:45 78.40, -66.14 62.09 1.47 69



Historial Predications of SNOs between NOAA-19 and NPP
